When you browse on this site, cookies collect data to enhance your experience and personalize the content and advertising you see.
Visit our Privacy Policy to learn more. By continuing to use the site, you agree to this use of cookies and data.
  • In United Kingdom
  • List of Countries
  • For 7 days
  • Water Temperature
  • Satellite Maps
  • Weather Map
  • Weather Widgets
  • user-avatar
    Login

    Hourly Weather Maassluis

    Today, 18 April, Thursday

    Time Temperature Precipitation Wind Pressure Humidity
    00:00 +11°C° 0 mm 4 mps 767 mmHg 81%
    01:00 +11°C° 0 mm 4 mps 767 mmHg 79%
    02:00 +11°C° 0 mm 4 mps 767 mmHg 76%
    03:00 +11°C° 0 mm 4 mps 767 mmHg 74%
    04:00 +11°C° 0 mm 4 mps 767 mmHg 74%
    05:00 +11°C° 0 mm 4 mps 767 mmHg 73%
    06:00 +10°C° 0 mm 5 mps 768 mmHg 70%
    07:00 +13°C° 0 mm 5 mps 768 mmHg 66%
    08:00 +15°C° 0 mm 5 mps 768 mmHg 62%
    09:00 +16°C° 0 mm 5 mps 768 mmHg 57%
    10:00 +19°C° 0 mm 5 mps 768 mmHg 51%
    11:00 +20°C° 0 mm 5 mps 768 mmHg 46%
    12:00 +21°C° 0 mm 6 mps 768 mmHg 40%
    13:00 +21°C° 0 mm 6 mps 768 mmHg 40%
    14:00 +21°C° 0 mm 5 mps 768 mmHg 41%
    15:00 +22°C° 0 mm 5 mps 768 mmHg 41%
    16:00 +21°C° 0 mm 5 mps 768 mmHg 45%
    17:00 +20°C° 0 mm 5 mps 768 mmHg 48%
    18:00 +19°C° 0 mm 5 mps 768 mmHg 51%
    19:00 +17°C° 0 mm 6 mps 769 mmHg 52%
    20:00 +16°C° 0 mm 6 mps 769 mmHg 53%
    21:00 +16°C° 0 mm 6 mps 770 mmHg 54%
    22:00 +15°C° 0 mm 6 mps 770 mmHg 55%
    23:00 +14°C° 0 mm 5 mps 770 mmHg 56%

    Tomorrow, 19 April, Friday

    Time Temperature Precipitation Wind Pressure Humidity
    00:00 +14°C° 0 mm 5 mps 770 mmHg 58%
    01:00 +13°C° 0 mm 5 mps 770 mmHg 60%
    02:00 +13°C° 0 mm 5 mps 770 mmHg 62%
    03:00 +12°C° 0 mm 5 mps 771 mmHg 64%
    04:00 +12°C° 0 mm 5 mps 771 mmHg 65%
    05:00 +12°C° 0 mm 5 mps 771 mmHg 67%
    06:00 +10°C° 0 mm 5 mps 771 mmHg 68%
    07:00 +13°C° 0 mm 5 mps 771 mmHg 64%
    08:00 +15°C° 0 mm 5 mps 772 mmHg 61%
    09:00 +16°C° 0 mm 5 mps 772 mmHg 57%
    10:00 +19°C° 0 mm 5 mps 772 mmHg 51%
    11:00 +20°C° 0 mm 5 mps 772 mmHg 45%
    12:00 +21°C° 0 mm 5 mps 771 mmHg 39%
    13:00 +22°C° 0 mm 5 mps 771 mmHg 39%
    14:00 +22°C° 0 mm 4 mps 771 mmHg 39%
    15:00 +23°C° 0 mm 4 mps 771 mmHg 38%
    16:00 +22°C° 0 mm 4 mps 771 mmHg 42%
    17:00 +21°C° 0 mm 4 mps 771 mmHg 46%
    18:00 +20°C° 0 mm 4 mps 771 mmHg 50%
    19:00 +19°C° 0 mm 5 mps 771 mmHg 53%
    20:00 +17°C° 0 mm 5 mps 772 mmHg 55%
    21:00 +16°C° 0 mm 5 mps 772 mmHg 58%
    22:00 +15°C° 0 mm 5 mps 772 mmHg 60%
    23:00 +15°C° 0 mm 4 mps 772 mmHg 63%

    Day after tomorrow, 20 April, Saturday

    Time Temperature Precipitation Wind Pressure Humidity
    00:00 +14°C° 0 mm 4 mps 772 mmHg 66%
    01:00 +13°C° 0 mm 4 mps 772 mmHg 68%
    02:00 +13°C° 0 mm 4 mps 772 mmHg 70%
    03:00 +12°C° 0 mm 4 mps 772 mmHg 72%
    04:00 +12°C° 0 mm 4 mps 772 mmHg 72%
    05:00 +12°C° 0 mm 4 mps 772 mmHg 73%
    06:00 +12°C° 0 mm 4 mps 772 mmHg 73%
    07:00 +14°C° 0 mm 4 mps 772 mmHg 68%
    08:00 +17°C° 0 mm 4 mps 772 mmHg 62%
    09:00 +18°C° 0 mm 3 mps 772 mmHg 57%
    10:00 +20°C° 0 mm 3 mps 772 mmHg 51%
    11:00 +21°C° 0 mm 4 mps 772 mmHg 46%
    12:00 +23°C° 0 mm 4 mps 772 mmHg 40%
    13:00 +23°C° 0 mm 4 mps 771 mmHg 40%
    14:00 +23°C° 0 mm 4 mps 771 mmHg 39%
    15:00 +23°C° 0 mm 4 mps 770 mmHg 38%
    16:00 +22°C° 0 mm 4 mps 770 mmHg 42%
    17:00 +21°C° 0 mm 4 mps 770 mmHg 46%
    18:00 +20°C° 0 mm 4 mps 770 mmHg 50%
    19:00 +19°C° 0 mm 4 mps 770 mmHg 52%
    20:00 +17°C° 0 mm 5 mps 770 mmHg 55%
    21:00 +16°C° 0 mm 5 mps 770 mmHg 58%
    22:00 +15°C° 0 mm 5 mps 770 mmHg 59%
    23:00 +14°C° 0 mm 4 mps 770 mmHg 60%

    21 April, Sunday

    Time Temperature Precipitation Wind Pressure Humidity
    00:00 +13°C° 0 mm 4 mps 770 mmHg 61%
    01:00 +12°C° 0 mm 4 mps 769 mmHg 61%
    02:00 +12°C° 0 mm 4 mps 769 mmHg 61%
    03:00 +11°C° 0 mm 4 mps 769 mmHg 61%
    04:00 +11°C° 0 mm 4 mps 768 mmHg 61%
    05:00 +11°C° 0 mm 4 mps 768 mmHg 62%
    06:00 +11°C° 0 mm 4 mps 768 mmHg 62%
    07:00 +13°C° 0 mm 3 mps 768 mmHg 60%
    08:00 +14°C° 0 mm 3 mps 768 mmHg 57%
    09:00 +17°C° 0 mm 3 mps 767 mmHg 55%
    10:00 +18°C° 0 mm 3 mps 767 mmHg 51%
    11:00 +20°C° 0 mm 3 mps 766 mmHg 47%
    12:00 +21°C° 0 mm 2 mps 766 mmHg 43%
    13:00 +21°C° 0 mm 3 mps 765 mmHg 41%
    14:00 +22°C° 0 mm 3 mps 765 mmHg 39%
    15:00 +22°C° 0 mm 3 mps 764 mmHg 37%
    16:00 +21°C° 0 mm 3 mps 764 mmHg 40%
    17:00 +20°C° 0 mm 3 mps 763 mmHg 43%
    18:00 +19°C° 0 mm 3 mps 763 mmHg 46%
    19:00 +18°C° 0 mm 3 mps 763 mmHg 48%
    20:00 +17°C° 0 mm 3 mps 763 mmHg 49%
    21:00 +14°C° 0 mm 3 mps 763 mmHg 50%
    22:00 +14°C° 0 mm 3 mps 763 mmHg 51%
    23:00 +13°C° 0 mm 3 mps 762 mmHg 53%

    22 April, Monday

    Time Temperature Precipitation Wind Pressure Humidity
    00:00 +12°C° 0 mm 3 mps 762 mmHg 54%
    01:00 +12°C° 0 mm 3 mps 762 mmHg 60%
    02:00 +11°C° 0 mm 3 mps 761 mmHg 65%
    03:00 +11°C° 0 mm 3 mps 761 mmHg 71%
    04:00 +11°C° 0 mm 3 mps 760 mmHg 72%
    05:00 +11°C° 0 mm 3 mps 760 mmHg 73%
    06:00 +11°C° 0 mm 3 mps 760 mmHg 73%
    07:00 +13°C° 0 mm 3 mps 760 mmHg 67%
    08:00 +16°C° 0 mm 3 mps 760 mmHg 61%
    09:00 +18°C° 0 mm 3 mps 759 mmHg 55%
    10:00 +19°C° 0 mm 3 mps 759 mmHg 50%
    11:00 +21°C° 0 mm 3 mps 759 mmHg 45%
    12:00 +22°C° 0 mm 3 mps 758 mmHg 40%
    13:00 +22°C° 0 mm 4 mps 758 mmHg 39%
    14:00 +22°C° 0 mm 4 mps 757 mmHg 39%
    15:00 +23°C° 0 mm 4 mps 757 mmHg 38%
    16:00 +22°C° 0 mm 4 mps 757 mmHg 41%
    17:00 +21°C° 0 mm 4 mps 756 mmHg 45%
    18:00 +20°C° 0 mm 4 mps 756 mmHg 49%
    19:00 +19°C° 0 mm 5 mps 756 mmHg 51%
    20:00 +17°C° 0 mm 6 mps 756 mmHg 54%
    21:00 +16°C° 0 mm 6 mps 756 mmHg 57%
    22:00 +15°C° 0 mm 6 mps 756 mmHg 58%
    23:00 +14°C° 0 mm 6 mps 756 mmHg 58%

    23 April, Tuesday

    Time Temperature Precipitation Wind Pressure Humidity
    00:00 +14°C° 0 mm 6 mps 756 mmHg 58%
    01:00 +13°C° 0 mm 6 mps 756 mmHg 58%
    02:00 +11°C° 0 mm 6 mps 756 mmHg 59%
    03:00 +10°C° 0 mm 6 mps 756 mmHg 59%
    04:00 +10°C° 0 mm 6 mps 756 mmHg 61%
    05:00 +10°C° 0 mm 6 mps 756 mmHg 62%
    06:00 +9°C° 0 mm 6 mps 756 mmHg 64%
    07:00 +11°C° 0 mm 6 mps 756 mmHg 60%
    08:00 +13°C° 0 mm 6 mps 756 mmHg 55%
    09:00 +14°C° 0 mm 5 mps 756 mmHg 51%
    10:00 +15°C° 0 mm 5 mps 755 mmHg 48%
    11:00 +16°C° 0 mm 5 mps 755 mmHg 44%
    12:00 +18°C° 0 mm 4 mps 755 mmHg 41%
    13:00 +19°C° 0 mm 4 mps 755 mmHg 40%
    14:00 +19°C° 0 mm 4 mps 755 mmHg 40%
    15:00 +19°C° 0 mm 4 mps 755 mmHg 40%
    16:00 +18°C° 0 mm 4 mps 755 mmHg 44%
    17:00 +18°C° 0 mm 4 mps 755 mmHg 49%
    18:00 +17°C° 0 mm 4 mps 755 mmHg 54%
    19:00 +15°C° 0 mm 4 mps 756 mmHg 59%
    20:00 +14°C° 0 mm 4 mps 756 mmHg 65%
    21:00 +13°C° 0 mm 4 mps 757 mmHg 70%
    22:00 +12°C° 0 mm 3 mps 757 mmHg 74%
    23:00 +11°C° 0 mm 3 mps 757 mmHg 78%
    Show more